When you browse on this site, cookies collect data to enhance your experience and personalize the content and advertising you see.
Visit our Privacy Policy to learn more. By continuing to use the site, you agree to this use of cookies and data.
  • în România
  • Lista ţărilor
  • Pe 7 zile
  • Temperatura apei
  • Meteo pe hartă
  • Widget-uri
  • user-avatar
    Intrare

    Meteo pe oră la Gyor

    Astăzi, 18 Octombrie, Vineri

    Timp Temperatura Precipitaţii Vânt Presiune Umiditate
    00:00 +14°C° 0 mm 2 m/s 752 mmHg 83%
    01:00 +12°C° 0 mm 3 m/s 752 mmHg 86%
    02:00 +12°C° 0 mm 3 m/s 752 mmHg 86%
    03:00 +12°C° 0 mm 3 m/s 752 mmHg 86%
    04:00 +13°C° 0 mm 2 m/s 752 mmHg 86%
    05:00 +13°C° 0 mm 2 m/s 752 mmHg 86%
    06:00 +13°C° 0 mm 2 m/s 752 mmHg 86%
    07:00 +13°C° 0 mm 2 m/s 752 mmHg 88%
    08:00 +14°C° 0 mm 2 m/s 752 mmHg 80%
    09:00 +16°C° 0 mm 2 m/s 752 mmHg 72%
    10:00 +18°C° 0 mm 2 m/s 752 mmHg 64%
    11:00 +19°C° 0 mm 3 m/s 752 mmHg 60%
    12:00 +20°C° 0 mm 3 m/s 751 mmHg 56%
    13:00 +21°C° 0 mm 3 m/s 751 mmHg 52%
    14:00 +21°C° 0 mm 3 m/s 751 mmHg 54%
    15:00 +20°C° 0 mm 2 m/s 751 mmHg 57%
    16:00 +20°C° 0 mm 2 m/s 750 mmHg 59%
    17:00 +18°C° 0 mm 2 m/s 750 mmHg 64%
    18:00 +17°C° 0 mm 2 m/s 750 mmHg 70%
    19:00 +16°C° 0 mm 1 m/s 750 mmHg 75%
    20:00 +15°C° 0 mm 1 m/s 751 mmHg 78%
    21:00 +15°C° 0 mm 1 m/s 751 mmHg 80%
    22:00 +14°C° 0 mm 1 m/s 751 mmHg 83%
    23:00 +14°C° 0 mm 1 m/s 751 mmHg 85%

    Mâine, 19 Octombrie, Sâmbătă

    Timp Temperatura Precipitaţii Vânt Presiune Umiditate
    00:00 +14°C° 0 mm 1 m/s 751 mmHg 87%
    01:00 +13°C° 0 mm 1 m/s 751 mmHg 89%
    02:00 +13°C° 0 mm 1 m/s 751 mmHg 90%
    03:00 +13°C° 0 mm 1 m/s 751 mmHg 91%
    04:00 +12°C° 0 mm 1 m/s 751 mmHg 92%
    05:00 +12°C° 0 mm 2 m/s 751 mmHg 92%
    06:00 +12°C° 0 mm 2 m/s 751 mmHg 92%
    07:00 +12°C° 0 mm 2 m/s 751 mmHg 93%
    08:00 +14°C° 0 mm 3 m/s 751 mmHg 81%
    09:00 +17°C° 0 mm 4 m/s 750 mmHg 69%
    10:00 +19°C° 0 mm 5 m/s 750 mmHg 57%
    11:00 +21°C° 0 mm 6 m/s 750 mmHg 53%
    12:00 +22°C° 0 mm 7 m/s 750 mmHg 48%
    13:00 +23°C° 0 mm 8 m/s 750 mmHg 44%
    14:00 +23°C° 0 mm 7 m/s 749 mmHg 47%
    15:00 +22°C° 0 mm 6 m/s 749 mmHg 49%
    16:00 +22°C° 0 mm 6 m/s 749 mmHg 52%
    17:00 +21°C° 0 mm 5 m/s 749 mmHg 57%
    18:00 +19°C° 0 mm 5 m/s 749 mmHg 62%
    19:00 +18°C° 0 mm 4 m/s 750 mmHg 67%
    20:00 +17°C° 0 mm 4 m/s 750 mmHg 69%
    21:00 +17°C° 0 mm 4 m/s 750 mmHg 70%
    22:00 +16°C° 0 mm 3 m/s 751 mmHg 72%
    23:00 +16°C° 0 mm 3 m/s 751 mmHg 74%

    Poimâine, 20 Octombrie, Duminică

    Timp Temperatura Precipitaţii Vânt Presiune Umiditate
    00:00 +14°C° 0 mm 3 m/s 751 mmHg 77%
    01:00 +14°C° 0 mm 3 m/s 751 mmHg 79%
    02:00 +14°C° 0 mm 3 m/s 751 mmHg 82%
    03:00 +13°C° 0 mm 3 m/s 751 mmHg 85%
    04:00 +13°C° 0 mm 3 m/s 751 mmHg 88%
    05:00 +13°C° 0 mm 3 m/s 751 mmHg 89%
    06:00 +13°C° 0 mm 3 m/s 751 mmHg 89%
    07:00 +14°C° 0 mm 3 m/s 751 mmHg 89%
    08:00 +16°C° 0 mm 5 m/s 751 mmHg 79%
    09:00 +19°C° 0 mm 6 m/s 751 mmHg 68%
    10:00 +22°C° 0 mm 7 m/s 751 mmHg 57%
    11:00 +23°C° 0 mm 8 m/s 751 mmHg 52%
    12:00 +24°C° 0 mm 8 m/s 751 mmHg 48%
    13:00 +26°C° 0 mm 9 m/s 750 mmHg 43%
    14:00 +24°C° 0 mm 8 m/s 750 mmHg 45%
    15:00 +24°C° 0 mm 8 m/s 750 mmHg 47%
    16:00 +23°C° 0 mm 7 m/s 750 mmHg 49%
    17:00 +22°C° 0 mm 7 m/s 750 mmHg 53%
    18:00 +21°C° 0 mm 7 m/s 750 mmHg 57%
    19:00 +20°C° 0 mm 7 m/s 750 mmHg 60%
    20:00 +19°C° 0 mm 6 m/s 750 mmHg 61%
    21:00 +19°C° 0 mm 6 m/s 750 mmHg 62%
    22:00 +19°C° 0 mm 6 m/s 750 mmHg 62%
    23:00 +17°C° 0 mm 6 m/s 750 mmHg 63%

    21 Octombrie, Luni

    Timp Temperatura Precipitaţii Vânt Presiune Umiditate
    00:00 +17°C° 0 mm 5 m/s 750 mmHg 65%
    01:00 +17°C° 0 mm 5 m/s 750 mmHg 66%
    02:00 +16°C° 0 mm 5 m/s 750 mmHg 70%
    03:00 +17°C° 0 mm 4 m/s 750 mmHg 73%
    04:00 +15°C° 0 mm 4 m/s 751 mmHg 77%
    05:00 +16°C° 0 mm 3 m/s 751 mmHg 80%
    06:00 +14°C° 0 mm 3 m/s 751 mmHg 82%
    07:00 +15°C° 0 mm 2 m/s 751 mmHg 84%
    08:00 +17°C° 0 mm 3 m/s 751 mmHg 76%
    09:00 +19°C° 0 mm 3 m/s 752 mmHg 68%
    10:00 +20°C° 0 mm 3 m/s 752 mmHg 60%
    11:00 +22°C° 0 mm 3 m/s 752 mmHg 56%
    12:00 +24°C° 0 mm 3 m/s 752 mmHg 53%
    13:00 +25°C° 0 mm 3 m/s 752 mmHg 50%
    14:00 +24°C° 0 mm 3 m/s 752 mmHg 51%
    15:00 +24°C° 0 mm 2 m/s 752 mmHg 53%
    16:00 +23°C° 0 mm 2 m/s 752 mmHg 55%
    17:00 +20°C° 0 mm 2 m/s 752 mmHg 61%
    18:00 +19°C° 0 mm 2 m/s 753 mmHg 66%
    19:00 +17°C° 0 mm 2 m/s 753 mmHg 71%
    20:00 +17°C° 0 mm 2 m/s 753 mmHg 74%
    21:00 +16°C° 0 mm 1 m/s 754 mmHg 76%
    22:00 +16°C° 0 mm 1 m/s 754 mmHg 79%
    23:00 +15°C° 0 mm 1 m/s 754 mmHg 81%

    22 Octombrie, Marţi

    Timp Temperatura Precipitaţii Vânt Presiune Umiditate
    00:00 +15°C° 0 mm 1 m/s 754 mmHg 84%
    01:00 +15°C° 0 mm 2 m/s 755 mmHg 86%
    02:00 +14°C° 0 mm 1 m/s 755 mmHg 88%
    03:00 +14°C° 0 mm 1 m/s 755 mmHg 89%
    04:00 +14°C° 0 mm 1 m/s 755 mmHg 91%
    05:00 +14°C° 0 mm 1 m/s 755 mmHg 91%
    06:00 +14°C° 0 mm 1 m/s 756 mmHg 91%
    07:00 +14°C° 0 mm 1 m/s 756 mmHg 92%
    08:00 +15°C° 0 mm 2 m/s 756 mmHg 83%
    09:00 +17°C° 0 mm 2 m/s 756 mmHg 74%
    10:00 +19°C° 0 mm 2 m/s 757 mmHg 66%
    11:00 +20°C° 0 mm 2 m/s 757 mmHg 62%
    12:00 +21°C° 0 mm 2 m/s 757 mmHg 58%
    13:00 +23°C° 0 mm 2 m/s 757 mmHg 54%
    14:00 +23°C° 0 mm 2 m/s 757 mmHg 56%
    15:00 +22°C° 0 mm 1 m/s 756 mmHg 58%
    16:00 +22°C° 0 mm 1 m/s 756 mmHg 60%
    17:00 +21°C° 0 mm 1 m/s 756 mmHg 65%
    18:00 +19°C° 0 mm 1 m/s 757 mmHg 70%
    19:00 +18°C° 0 mm 1 m/s 757 mmHg 74%
    20:00 +18°C° 0 mm 1 m/s 757 mmHg 76%
    21:00 +16°C° 0 mm 1 m/s 757 mmHg 79%
    22:00 +16°C° 0 mm 1 m/s 757 mmHg 81%
    23:00 +15°C° 0 mm 1 m/s 757 mmHg 82%

    23 Octombrie, Miercuri

    Timp Temperatura Precipitaţii Vânt Presiune Umiditate
    00:00 +15°C° 0 mm 1 m/s 757 mmHg 84%
    01:00 +15°C° 0 mm 1 m/s 757 mmHg 86%
    02:00 +14°C° 0 mm 1 m/s 757 mmHg 86%
    03:00 +14°C° 0 mm 2 m/s 756 mmHg 86%
    04:00 +14°C° 0 mm 2 m/s 756 mmHg 86%
    05:00 +14°C° 0 mm 2 m/s 756 mmHg 83%
    06:00 +14°C° 0 mm 2 m/s 756 mmHg 80%
    07:00 +14°C° 0 mm 2 m/s 756 mmHg 77%
    08:00 +16°C° 0 mm 3 m/s 756 mmHg 68%
    09:00 +18°C° 0 mm 3 m/s 756 mmHg 59%
    10:00 +20°C° 0 mm 4 m/s 756 mmHg 50%
    11:00 +22°C° 0 mm 4 m/s 755 mmHg 48%
    12:00 +23°C° 0 mm 4 m/s 755 mmHg 45%
    13:00 +25°C° 0 mm 4 m/s 755 mmHg 42%
    14:00 +23°C° 0 mm 4 m/s 754 mmHg 45%
    15:00 +23°C° 0 mm 4 m/s 754 mmHg 47%
    16:00 +22°C° 0 mm 3 m/s 753 mmHg 49%
    17:00 +21°C° 0 mm 3 m/s 753 mmHg 54%
    18:00 +19°C° 0 mm 4 m/s 753 mmHg 60%
    19:00 +18°C° 0 mm 4 m/s 753 mmHg 65%
    20:00 +17°C° 0 mm 4 m/s 754 mmHg 67%
    21:00 +17°C° 0 mm 4 m/s 754 mmHg 69%
    22:00 +15°C° 0 mm 4 m/s 754 mmHg 71%
    23:00 +15°C° 0 mm 4 m/s 754 mmHg 73%
    Arată mai mult